CamptonHillsWeather.com

Find the Weather for any City, State  
or Zipcode, or Country:

Campton Hills, IL Weather
Local Radar

Local Radar

Graphs, Details
Graphs and Gauges
Detailed Weather
Detailed Reports
Ajax Version (old)
Central Kane Co Summary
Davis Current Weather Graphs
Davis 24 Hour Weather History

CW3778 Data

Weather Underground
Maps
Temperature
Heat Index
Windchill
Humidity
Radar
Dew Point
Wind
Visibility
Visible Satellite
Satellite
Fronts
Snow Depth
Jet Stream
Flight Rules
Forecast Maps
Temperature Forecast
Maximum Temperature Forecast
Minimum Temperature Forecast
Dewpoint Forecast
Prevalent Weather
12Hr Probability of Precip.
Sky Cover
Health Maps
UV Forecast
Air Quality
Peak Air Quality Index
Weather Station
Davis Instruments Vantage Pro
Current Conditions [Select Refresh to Update]

Updated: 7:00am on 7/1/15

(location)
Currently:
56.4F

Clear
Overcast

High: 59.1 F< 
(12:00am
Low: 55.5 F 
(3:01am)
Wind: S 0 mph
Calm
Gust: 4 mph
Today's High Wind: 5 mph (4:41am)
Humidity: 90%
Pressure: 29.95 in  (Steady
Pressure Rate: 0.016 in/hr
Dew Point: 53.5F
Wind Chill: 56.4 F
Heat Index (feels like): 62.0 F
Comfort Level: Cool
Temperature Rate:  0.35F/hr
 
5 Day Forecast
 
Wed Thu Fri Sat Sun
Clear Clear Clear Clear Clear
Mostly Cloudy Mostly Cloudy Mostly Cloudy Mostly Cloudy Chance T-storms
74 74 78 80 81
53 56 57 61 65

Records and Normals
 
Temperature Forecast Normal Record
High 74 85 91
(2002)
Low 53 62 48
(2001)
 
Links
 
 
Weather Advisories
No Advisories
Full Advisory Text...
Weather Map

Web Cam

Almanac
 
Sunrise:  
5:23am
Moonrise: 
8:02pm

Moon Phase:
99%

Sunset: 
8:34pm
Moonset:  
5:08am
 Star Chart...
Rainfall Totals
Hourly Rain 0.00 in
Daily Rain: 0.00 in
Monthly Rain: 0.00 in
Yearly Rain: 20.67 in
Normal Rain, month to date: 8.01 in
Normal Rain, year to date: 19.00 in
Link to Village of Campton Hills Map

Link to Counties of Illinois Map

Local Weather Exchange Network
Station ID City 
(Click for Map Location)
Neighborhood 
(Click for History)
Last Update (Date & Time) Temperature
 ()
Dew
Point ()
Humidity 
(%)
Wind 
(mph)
from the Wind Gust 
(mph) 
Pressure(in) Hourly
Rain(in)
KILSAINT10 Saint Charles Saint Charles Burr Road 07/01 06:44:06 57.0 54.0 89 2 NE 0 29.66 0.00
MD5528 Wasco APRSWXNET 07/01 06:38:00 55.0 51.0 85 1 NE 0 29.92 0.00
KILSTCHA10 St. Charles Hunt Club 07/01 06:53:26 57.6 38.0 48 0 NNE 2 29.50 0.00
KILSAINT8 Saint Charles St. Charles Near West Side 07/01 06:41:32 58.3 54.0 85 0 East 0 29.73 0.00
KILWAYNE4 Wayne Hampton Course 07/01 06:50:24 58.6 54.0 86 0 North 0 30.05 0.00
KILSAINT7 Saint Charles Silver Glen 07/01 06:50:51 57.0 54.0 88 1 NE 2 29.56 0.00
KILCAMPT3 Campton Hills Campton Hills 07/01 06:53:50 56.9 55.0 93 0 SSW 0 29.95 0.00
KILSAINT6 Saint Charles 3 Lakes 07/01 06:48:55 56.8 50.0 79 0 SSW 0 29.70 0.00
KILSAINT9 Saint Charles Fox Chase 07/01 06:53:59 57.7 54.0 88 0 South 0 29.94 0.00
KILGENEV6 Geneva Dover Ridge 07/01 06:53:54 57.2 53.0 86 1 East 1 29.92 0.00
KILGENEV10 Geneva Southampton Drive 07/01 06:52:14 57.6 56.0 93 0 North 0 30.02 0.00
KILSTCHA8 St. Charles Ronzheimer Ave. & S. Tyler Rd. 07/01 06:53:44 56.6 53.0 87 0 East 6 29.92 0.00
KILGENEV9 Geneva Saint Andrews Circle 07/01 06:51:49 57.9 54.0 88 0 North 0 30.02 0.00
KILGENEV3 Geneva Mill Creek (Blackberry Way) 07/01 06:53:58 57.7 54.0 87 0 NE 5 29.95 0.00
KILSTCHA1 St Charles CamptonHillsWeather.com Central Kane County 07/01 06:53:45 56.4 54.0 90 0 South 4 29.95 0.00
KILGENEV7 Geneva Eldorado Drive 07/01 06:51:10 58.5 54.0 85 0 North 0 29.88 0.00
KILGENEV8 Geneva Alexander Drive 07/01 06:50:56 65.1 41.0 41 0 North 0 30.16 0.00
KILSOUTH5 South Elgin Concord Park 07/01 06:42:35 57.2 55.0 91 1 ENE 0 29.71 0.00
KILGENEV2 Geneva Mill Creek 07/01 06:52:54 56.9 52.0 83 2 NE 5 29.89 0.00
KILBATAV7 Batavia Charleston Street 07/01 06:51:28 57.6 53.0 85 0 North 0 30.04 0.00
KILBATAV6 Batavia Tri Cities on the Fox River 2 07/01 06:30:06 57.3 50.0 77 0 SE 0 29.98 0.00
KILBATAV1 Batavia Tri-Cities on the Fox River 07/01 06:53:16 58.4 52.0 79 0 ENE 0 29.95 0.00
KILELGIN16 Elgin Providence Subdivision 07/01 06:43:16 56.8 51.0 82 0 ESE 0 29.70 0.00
KILELBUR10 Elburn Prairie Valley North 07/01 06:53:48 56.8 54.0 89 3 ESE 5 30.05 0.00
KILBATAV9 Batavia Deerpath Road 07/01 06:51:40 59.9 54.0 81 0 North 0 29.96 0.00
KILELBUR5 Elburn Prairie Highlands 07/01 06:50:15 57.3 55.0 91 0 ESE 4 29.93 0.00
KILWESTC12 West Chicago Woodland Avenue 07/01 06:52:10 57.4 53.0 85 0 North 0 30.01 0.00
MD7322 Elburn APRSWXNET 07/01 06:36:00 57.0 54.0 90 0 East 0 29.93 0.00
KILBATAV3 Batavia West Batavia 07/01 06:52:44 57.2 54.0 88 4 ENE 0 29.90 0.00
KILELBUR6 Elburn Columbine Square 07/01 06:49:32 56.6 54.0 89 0 ESE 2 29.89 0.00
KILBATAV5 Batavia Fermi National Accelerator Laboratory 07/01 06:44:24 57.8 54.0 86 0 NNW 1 29.89 0.00
KILELBUR8 Elburn Columbine 07/01 06:51:27 56.7 54.0 89 3 East 4 29.91 0.00
MAU819 West Chicago APRSWXNET 07/01 06:38:00 57.0 51.0 81 0 North 0 29.95 0.00
KILWESTC5 West Chicago THEBROWNHOUSE.ORG 07/01 06:54:00 57.4 51.0 78 0 North 0 29.95 0.00
KILWESTC8 West Chicago Ingalton Hills Estates 07/01 06:53:55 57.0 54.0 90 0 North 0 30.06 0.00
KILNORTH29 North Aurora County Club Estates 07/01 06:49:35 57.2 53.0 87 0 NNE 3 29.92 0.00
KILELGIN18 Elgin Highland Glen 07/01 06:41:01 56.1 52.0 86 4 ESE 0 30.02 0.00
KILNORTH11 North Aurora Waterford Oaks 07/01 06:53:59 58.0 54.0 87 2 East 6 29.92 0.00
KILELGIN10 Elgin Wing Park, Elgin, IL 07/01 06:53:56 59.2 55.0 86 2 NNW 2 29.94 0.00
KDPA Chicago DuPage Official Station 07/01 05:52:00 57.0 51.0 81 5 NE --- 29.93 ---
Full Advisory Text
No Warnings

Ambient Weather and Weather Underground
 Never base important decisions on this or any weather information obtained from the Internet
Updated Automatically by Ambient Weather's Virtual Weather Station  V13.01